Marfa, TX

1:56 PM CDT on August 25, 2016 (GMT -0500)
Marfa Municipal

Weather History for KMRF - October, 2012

Change the Weather History Date:

Friday, October 26, 2012

  Actual Average Record
Temperature  
Mean Temperature 46 °F -  
Max Temperature 53 °F 69 °F 82 °F (2011)
Min Temperature 39 °F 41 °F 26 °F (1997)
Degree Days  
Heating Degree Days 19    
Moisture  
Dew Point 33 °F    
Average Humidity 63    
Maximum Humidity 82    
Minimum Humidity 50    
Precipitation  
Precipitation 0.00 in - - ()
Sea Level Pressure  
Sea Level Pressure 30.23 in    
Wind  
Wind Speed 14 mph (NNE)    
Max Wind Speed 23 mph    
Max Gust Speed 28 mph    
Visibility 10 miles    
Events      
Averages and records for this station are not official NWS values.
T = Trace of Precipitation, MM = Missing Value Source: NWS Daily Summary

Daily Weather History Graph

Daily Weather History Graph

Search for Another Location

Airport or City:

Trip Planner

Search our weather history database for the weather conditions in past years. The results will help you decide how hot, cold, wet, or windy it might be!

Date:

Astronomy

Oct. 26, 2012 Rise Set
Actual Time 8:06 AM CDT 7:13 PM CDT
Civil Twilight 7:41 AM CDT 7:37 PM CDT
Nautical Twilight 7:13 AM CDT 8:05 PM CDT
Astronomical Twilight 6:45 AM CDT 8:33 PM CDT
Moon 5:21 PM CDT (10/26) 5:15 AM CDT (10/26)
Length of Visible Light 11h 56m
Length of Day
11h 06m
Waxing Gibbous, 91% of the Moon is Illuminated
Oct 26
Waxing Gibbous
Oct 29
Full
Nov 6
Last Quarter
Nov 13
New
Nov 20
First Quarter

Hourly Weather History & Observations

Time (CDT) Temp. Windchill Dew Point Humidity Pressure Visibility Wind Dir Wind Speed Gust Speed Precip Events Conditions
12:15 AM 53.6 °F - 42.8 °F 67% 30.13 in 10.0 mi NNE 15.0 mph 18.4 mph N/A   Clear
12:35 AM 51.8 °F - 42.8 °F 71% 30.13 in 10.0 mi NNE 12.7 mph - N/A   Clear
1:15 AM 51.8 °F - 42.8 °F 71% 30.13 in 10.0 mi NE 11.5 mph 18.4 mph N/A   Clear
1:35 AM 48.2 °F - 42.8 °F 82% 30.13 in 10.0 mi NNE 8.1 mph - N/A   Clear
1:55 AM 48.2 °F - 42.8 °F 82% 30.14 in 10.0 mi Calm Calm - N/A   Clear
2:15 AM 48.2 °F - 42.8 °F 82% 30.14 in 10.0 mi NNE 9.2 mph - N/A   Clear
2:35 AM 48.2 °F - 42.8 °F 82% 30.14 in 10.0 mi NNE 12.7 mph - N/A   Clear
2:55 AM 48.2 °F - 41.0 °F 76% 30.14 in 10.0 mi NNE 12.7 mph 17.3 mph N/A   Clear
3:15 AM 48.2 °F - 39.2 °F 71% 30.14 in 10.0 mi NNE 15.0 mph - N/A   Clear
3:35 AM 46.4 °F 41.1 °F 39.2 °F 76% 30.15 in 10.0 mi NNE 11.5 mph - N/A   Clear
3:55 AM 46.4 °F 41.5 °F 37.4 °F 71% 30.14 in 10.0 mi NNE 10.4 mph - N/A   Clear
4:15 AM 46.4 °F 41.9 °F 37.4 °F 71% 30.14 in 10.0 mi NNE 9.2 mph - N/A   Clear
4:35 AM 44.6 °F 40.7 °F 37.4 °F 76% 30.15 in 10.0 mi NNE 6.9 mph - N/A   Clear
4:55 AM 44.6 °F 39.7 °F 35.6 °F 71% 30.14 in 10.0 mi NNE 9.2 mph - N/A   Clear
5:15 AM 44.6 °F 39.2 °F 35.6 °F 71% 30.15 in 10.0 mi NNE 10.4 mph - N/A   Clear
5:35 AM 44.6 °F 37.4 °F 33.8 °F 66% 30.15 in 10.0 mi NE 16.1 mph - N/A   Clear
5:55 AM 42.8 °F 35.4 °F 33.8 °F 70% 30.16 in 10.0 mi NNE 15.0 mph 21.9 mph N/A   Clear
6:15 AM 42.8 °F 34.8 °F 33.8 °F 70% 30.17 in 10.0 mi NNE 17.3 mph - N/A   Clear
6:35 AM 41.0 °F 33.1 °F 33.8 °F 76% 30.18 in 10.0 mi NNE 15.0 mph 20.7 mph N/A   Clear
6:55 AM 41.0 °F 33.5 °F 33.8 °F 76% 30.19 in 10.0 mi NNE 13.8 mph 17.3 mph N/A   Clear
7:15 AM 41.0 °F 35.2 °F 33.8 °F 76% 30.19 in 10.0 mi NNE 9.2 mph - N/A   Clear
8:35 AM 39.2 °F 31.6 °F 33.8 °F 81% 30.22 in 10.0 mi NNE 12.7 mph - N/A   Clear
8:55 AM 41.0 °F 33.9 °F 33.8 °F 76% 30.22 in 10.0 mi NE 12.7 mph - N/A   Clear
9:15 AM 42.8 °F 35.4 °F 33.8 °F 70% 30.23 in 10.0 mi NE 15.0 mph - N/A   Clear
9:35 AM 42.8 °F 34.8 °F 33.8 °F 70% 30.24 in 10.0 mi NE 17.3 mph - N/A   Clear
10:15 AM 44.6 °F 37.4 °F 33.8 °F 66% 30.26 in 10.0 mi NE 16.1 mph 19.6 mph N/A   Scattered Clouds
10:35 AM 44.6 °F 38.1 °F 33.8 °F 66% 30.26 in 10.0 mi NNE 13.8 mph - N/A   Overcast
10:55 AM 44.6 °F 36.9 °F 33.8 °F 66% 30.27 in 10.0 mi North 18.4 mph - N/A   Overcast
11:15 AM 44.6 °F 37.8 °F 33.8 °F 66% 30.28 in 10.0 mi NNE 15.0 mph - N/A   Overcast
11:35 AM 44.6 °F 36.4 °F 33.8 °F 66% 30.28 in 10.0 mi NNE 20.7 mph 24.2 mph N/A   Overcast
11:55 AM 44.6 °F 36.4 °F 33.8 °F 66% 30.29 in 10.0 mi NNE 20.7 mph 25.3 mph N/A   Overcast
12:15 PM 44.6 °F 36.6 °F 33.8 °F 66% 30.29 in 10.0 mi NNE 19.6 mph - N/A   Overcast
12:35 PM 44.6 °F 36.1 °F 33.8 °F 66% 30.29 in 10.0 mi NNE 21.9 mph 26.5 mph N/A   Overcast
12:55 PM 42.8 °F 34.5 °F 33.8 °F 70% 30.29 in 10.0 mi NNE 18.4 mph - N/A   Overcast
1:15 PM 42.8 °F 33.5 °F 32.0 °F 66% 30.28 in 10.0 mi NNE 23.0 mph - N/A   Overcast
1:35 PM 44.6 °F 36.1 °F 32.0 °F 61% 30.28 in 10.0 mi NNE 21.9 mph 27.6 mph N/A   Overcast
1:55 PM 44.6 °F 36.1 °F 30.2 °F 57% 30.27 in 10.0 mi NNE 21.9 mph 26.5 mph N/A   Overcast
2:15 PM 46.4 °F 38.7 °F 32.0 °F 57% 30.26 in 10.0 mi NNE 20.7 mph 26.5 mph N/A   Overcast
2:35 PM 46.4 °F 39.0 °F 32.0 °F 57% 30.25 in 10.0 mi NNE 19.6 mph 27.6 mph N/A   Overcast
2:55 PM 46.4 °F 38.7 °F 30.2 °F 53% 30.25 in 10.0 mi NNE 20.7 mph 26.5 mph N/A   Overcast
3:15 PM 46.4 °F 39.0 °F 30.2 °F 53% 30.25 in 10.0 mi NNE 19.6 mph - N/A   Overcast
3:35 PM 48.2 °F - 30.2 °F 50% 30.24 in 10.0 mi NNE 20.7 mph 25.3 mph N/A   Overcast
3:55 PM 46.4 °F 39.2 °F 30.2 °F 53% 30.24 in 10.0 mi NNE 18.4 mph 26.5 mph N/A   Overcast
4:15 PM 48.2 °F - 30.2 °F 50% 30.23 in 10.0 mi NNE 16.1 mph 25.3 mph N/A   Overcast
4:35 PM 48.2 °F - 30.2 °F 50% 30.23 in 10.0 mi NE 16.1 mph 21.9 mph N/A   Overcast
4:55 PM 48.2 °F - 30.2 °F 50% 30.23 in 10.0 mi NE 18.4 mph - N/A   Overcast
5:15 PM 48.2 °F - 30.2 °F 50% 30.23 in 10.0 mi NE 19.6 mph 24.2 mph N/A   Overcast
5:35 PM 48.2 °F - 30.2 °F 50% 30.23 in 10.0 mi NE 17.3 mph 23.0 mph N/A   Overcast
5:55 PM 46.4 °F 40.4 °F 30.2 °F 53% 30.23 in 10.0 mi NNE 13.8 mph 24.2 mph N/A   Overcast
6:15 PM 46.4 °F 39.0 °F 30.2 °F 53% 30.24 in 10.0 mi NNE 19.6 mph 24.2 mph N/A   Overcast
6:35 PM 46.4 °F 39.5 °F 30.2 °F 53% 30.24 in 10.0 mi NNE 17.3 mph - N/A   Overcast
6:55 PM 46.4 °F 40.7 °F 30.2 °F 53% 30.24 in 10.0 mi NNE 12.7 mph - N/A   Overcast
7:15 PM 46.4 °F 40.1 °F 28.4 °F 50% 30.25 in 10.0 mi NNE 15.0 mph - N/A   Overcast
7:35 PM 44.6 °F 37.8 °F 30.2 °F 57% 30.26 in 10.0 mi NNE 15.0 mph - N/A   Overcast
7:55 PM 44.6 °F 38.1 °F 28.4 °F 53% 30.27 in 10.0 mi NNE 13.8 mph 21.9 mph N/A   Overcast
8:15 PM 44.6 °F 37.8 °F 30.2 °F 57% 30.28 in 10.0 mi NE 15.0 mph 20.7 mph N/A   Overcast
8:35 PM 44.6 °F 37.4 °F 28.4 °F 53% 30.28 in 10.0 mi NE 16.1 mph - N/A   Overcast
8:55 PM 44.6 °F 37.2 °F 28.4 °F 53% 30.28 in 10.0 mi NE 17.3 mph 24.2 mph N/A   Overcast
9:15 PM 44.6 °F 37.8 °F 28.4 °F 53% 30.29 in 10.0 mi NE 15.0 mph 23.0 mph N/A   Overcast
9:35 PM 44.6 °F 36.9 °F 28.4 °F 53% 30.29 in 10.0 mi NNE 18.4 mph 23.0 mph N/A   Overcast
9:55 PM 46.4 °F 40.1 °F 28.4 °F 50% 30.30 in 10.0 mi NE 15.0 mph 20.7 mph N/A   Overcast
10:15 PM 46.4 °F 41.1 °F 28.4 °F 50% 30.30 in 10.0 mi NE 11.5 mph - N/A   Overcast
10:35 PM 46.4 °F 40.1 °F 28.4 °F 50% 30.30 in 10.0 mi NE 15.0 mph 18.4 mph N/A   Overcast
10:55 PM 46.4 °F 40.7 °F 28.4 °F 50% 30.30 in 10.0 mi NE 12.7 mph 18.4 mph N/A   Overcast
11:15 PM 44.6 °F 38.4 °F 28.4 °F 53% 30.30 in 10.0 mi NE 12.7 mph - N/A   Overcast
11:35 PM 44.6 °F 38.1 °F 28.4 °F 53% 30.30 in 10.0 mi NE 13.8 mph 23.0 mph N/A   Overcast
11:55 PM 44.6 °F 38.1 °F 28.4 °F 53% 30.29 in 10.0 mi NE 13.8 mph 20.7 mph N/A   Overcast